Change the Weather History Date:

Wednesday, May 29, 2013

  Actual Average Record
Temperature  
Mean Temperature 68 °F 63 °F  
Max Temperature 80 °F 77 °F 89 °F (2002)
Min Temperature 56 °F 48 °F 40 °F (2006)
Degree Days  
Heating Degree Days 0    
Month to date heating degree days 81  
Since 1 July heating degree days 2667  
Cooling Degree Days 3    
Month to date cooling degree days 32  
Year to date cooling degree days 50  
Growing Degree Days 18 (Base 50)    
Moisture  
Dew Point 49 °F    
Average Humidity 52    
Maximum Humidity 83    
Minimum Humidity 21    
Precipitation  
Precipitation T in 0.02 in 0.00 in (2015)
Month to date precipitation 0.17 1.28  
Year to date precipitation 5.02 21.80  
Since 1 July precipitation 27.43 35.99  
Sea Level Pressure  
Sea Level Pressure 29.90 in    
Wind  
Wind Speed 6 mph (WSW)    
Max Wind Speed 20 mph    
Max Gust Speed 25 mph    
Visibility 8 miles    
Events Rain    
T = Trace of Precipitation, MM = Missing Value Source: NWS Daily Summary

Daily Weather History Graph

Daily Weather History Graph

Search for Another Location

Airport or City:

Trip Planner

Search our weather history database for the weather conditions in past years. The results will help you decide how hot, cold, wet, or windy it might be!

Date:

Astronomy

May. 29, 2013 Rise Set
Actual Time 5:50 AM PDT 8:27 PM PDT
Civil Twilight 5:19 AM PDT 8:58 PM PDT
Nautical Twilight 4:40 AM PDT 9:37 PM PDT
Astronomical Twilight 3:57 AM PDT 10:20 PM PDT
Moon No Moon Rise 10:53 AM PDT (5/29)
Length of Visible Light 15h 39m
Length of Day
14h 37m
Waning Gibbous, 72% of the Moon is Illuminated
May 29
Waning Gibbous
May 31
Last Quarter
Jun 8
New
Jun 16
First Quarter
Jun 23
Full

Hourly Weather History & Observations

Time (PDT) Temp. Dew Point Humidity Pressure Visibility Wind Dir Wind Speed Gust Speed Precip Events Conditions
12:53 AM 55.9 °F 50.0 °F 80% 29.92 in 8.0 mi South 3.5 mph - N/A   Overcast
1:53 AM 55.9 °F 50.0 °F 80% 29.91 in 7.0 mi Calm Calm - 0.00 in   Overcast
2:53 AM 57.0 °F 51.1 °F 81% 29.91 in 8.0 mi Calm Calm - 0.00 in Rain Light Rain
3:53 AM 57.0 °F 51.1 °F 81% 29.91 in 6.0 mi Calm Calm - N/A   Haze
4:12 AM 57.2 °F 51.8 °F 82% 29.92 in 6.0 mi Calm Calm - N/A   Haze
4:53 AM 57.9 °F 52.0 °F 81% 29.90 in 6.0 mi Calm Calm - N/A   Haze
5:53 AM 57.9 °F 52.0 °F 81% 29.90 in 6.0 mi SSE 4.6 mph - N/A   Haze
6:53 AM 57.9 °F 51.1 °F 78% 29.92 in 4.0 mi SSE 3.5 mph - N/A   Overcast
7:53 AM 59.0 °F 52.0 °F 78% 29.93 in 5.0 mi SSE 4.6 mph - N/A   Overcast
8:48 AM 62.6 °F 53.6 °F 72% 29.95 in 5.0 mi Calm Calm - N/A   Mostly Cloudy
8:53 AM 62.1 °F 53.1 °F 72% 29.94 in 7.0 mi South 3.5 mph - N/A   Scattered Clouds
9:53 AM 66.0 °F 51.1 °F 59% 29.94 in 10.0 mi Calm Calm - N/A   Scattered Clouds
10:53 AM 70.0 °F 50.0 °F 49% 29.92 in 10.0 mi Calm Calm - N/A   Scattered Clouds
11:53 AM 73.0 °F 46.0 °F 38% 29.91 in 10.0 mi WNW 4.6 mph - N/A   Scattered Clouds
12:53 PM 75.0 °F 48.9 °F 40% 29.90 in 10.0 mi Variable 3.5 mph - N/A   Partly Cloudy
1:53 PM 75.9 °F 52.0 °F 43% 29.88 in 10.0 mi SSW 8.1 mph - N/A   Partly Cloudy
2:53 PM 77.0 °F 51.1 °F 40% 29.87 in 10.0 mi South 10.4 mph - N/A   Partly Cloudy
3:53 PM 77.0 °F 52.0 °F 42% 29.86 in 10.0 mi South 12.7 mph 18.4 mph N/A   Partly Cloudy
4:53 PM 79.0 °F 50.0 °F 36% 29.86 in 10.0 mi Variable 6.9 mph - N/A   Partly Cloudy
5:53 PM 80.1 °F 37.0 °F 21% 29.85 in 10.0 mi NW 8.1 mph - N/A   Clear
6:53 PM 73.9 °F 42.1 °F 32% 29.86 in 10.0 mi NNW 17.3 mph 20.7 mph N/A   Clear
7:53 PM 69.1 °F 45.0 °F 42% 29.88 in 5.0 mi NNW 17.3 mph 21.9 mph N/A   Clear
8:53 PM 64.0 °F 46.0 °F 52% 29.88 in 6.0 mi NW 13.8 mph 24.2 mph N/A   Clear
9:53 PM 61.0 °F 46.0 °F 58% 29.91 in 6.0 mi NW 9.2 mph - N/A   Clear
10:53 PM 59.0 °F 45.0 °F 60% 29.93 in 6.0 mi NNW 6.9 mph - N/A   Clear
11:53 PM 57.9 °F 46.0 °F 65% 29.93 in 6.0 mi North 9.2 mph - N/A   Clear